This demonstration page uses our WeatherBlox Daily Observations layout. Learn more.

Left ArrowRight Arrow

38.88101, -77.10428

Hourly Observations for November 7, 2018

Temp ( °F °C ) Dew Point ( °F °C ) Humidity (%) Winds ( mph kmh ) Pressure ( in mb ) Visibility ( mi km ) Precip ( " mm )
12:52 am 00:52 Clear with Fog 53 11.7 50 10 89 89 Calm 29.98 1015 10 16.0934 0 0
1:52 am 01:52 Clear with Fog 53 11.7 51 10.6 93 93 Calm 29.99 1016 10 16.0934 0 0
2:52 am 02:52 Clear 57 13.9 41 5 55 55 WNW 7 11 30.01 1016 10 16.0934 0 0
3:52 am 03:52 Clear 58 14.4 38 3.3 48 48 WNW 6 9 30.02 1017 10 16.0934 0 0
4:52 am 04:52 Clear 53 11.7 43 6.1 69 69 W 5 7 30.04 1017 10 16.0934 0 0
5:52 am 05:52 Clear 49 9.4 43 6.1 80 80 S 6 9 30.04 1017 10 16.0934 0 0
6:52 am 06:52 Partly Cloudy 50 10 46 7.8 86 86 SSW 6 9 30.06 1018 10 16.0934 0 0
7:52 am 07:52 Mostly Sunny 51 10.6 48 8.9 89 89 SSW 5 7 30.08 1019 10 16.0934 0 0
8:52 am 08:52 Mostly Sunny 55 12.8 50 10 83 83 S 3 6 30.1 1019 10 16.0934 0 0
9:52 am 09:52 Mostly Sunny 57 13.9 50 10 78 78 S 10 17 30.1 1019 10 16.0934 0 0
10:52 am 10:52 Mostly Cloudy 64 17.8 41 5 43 43 W 9 15 30.11 1020 10 16.0934 0 0
11:52 am 11:52 Mostly Cloudy 63 17.2 37 2.8 38 38 W 8 13 30.11 1020 10 16.0934 0 0
12:52 pm 12:52 Cloudy 61 16.1 47 8.3 60 60 S 7 11 30.09 1019 10 16.0934 0 0
1:52 pm 13:52 Cloudy 61 16.1 46 7.8 58 58 S 8 13 30.08 1019 10 16.0934 0 0
2:52 pm 14:52 Cloudy 61 16.1 44 6.7 54 54 S 7 11 30.07 1018 10 16.0934 0 0
3:52 pm 15:52 Cloudy 62 16.7 44 6.7 52 52 SSW 7 11 30.09 1019 10 16.0934 0 0
4:52 pm 16:52 Mostly Cloudy 60 15.6 46 7.8 60 60 S 5 7 30.09 1019 10 16.0934 0 0
5:52 pm 17:52 Mostly Cloudy 60 15.6 45 7.2 58 58 SSW 6 9 30.1 1019 10 16.0934 0 0
6:52 pm 18:52 Mostly Cloudy 57 13.9 49 9.4 74 74 S 3 6 30.11 1020 10 16.0934 0 0
7:52 pm 19:52 Mostly Cloudy 58 14.4 47 8.3 67 67 SW 3 6 30.11 1020 10 16.0934 0 0
8:52 pm 20:52 Mostly Cloudy 57 13.9 50 10 78 78 Calm 30.12 1020 10 16.0934 0 0
9:52 pm 21:52 Mostly Cloudy 56 13.3 50 10 81 81 SSE 3 6 30.14 1021 10 16.0934 0 0
10:52 pm 22:52 Cloudy 57 13.9 49 9.4 74 74 Calm 30.13 1020 10 16.0934 0 0
11:52 pm 23:52 Cloudy 56 13.3 49 9.4 77 77 Calm 30.14 1021 10 16.0934 0 0

Powered by AerisWeather